SAS1MO ESGG-EKCH

Flight info

Callsign SAS1MO
Flight time 0h 30m
Altitude 17000
Route TOPLA L996 ERNOV
Aircraft A359/H-SDE2E3GHIJ3J4J5LM1ORWXY/LB1D1

Departure

Time 2026-04-26 18:40
Airport Göteborg Landvetter Airport (ESGG)

Arrival

Time 2026-04-26 19:10
Airport Copenhagen Kastrup Airport (EKCH)
Time Latitude Longitude Altitude Speed Heading
2026-04-26 18:23 57.66734 12.29249 532 ft 0 kts 116°
2026-04-26 18:33 57.66738 12.29232 532 ft 3 kts 116°
2026-04-26 18:33 57.66746 12.29203 535 ft 2 kts 116°
2026-04-26 18:33 57.66754 12.29175 539 ft 2 kts 116°
2026-04-26 18:34 57.66764 12.29145 539 ft 3 kts 150°
2026-04-26 18:34 57.66783 12.29133 543 ft 3 kts 191°
2026-04-26 18:34 57.66799 12.29145 541 ft 2 kts 217°
2026-04-26 18:34 57.66812 12.29166 542 ft 2 kts 237°
2026-04-26 18:35 57.66820 12.29192 539 ft 2 kts 247°
2026-04-26 18:35 57.66828 12.29221 538 ft 3 kts 223°
2026-04-26 18:35 57.66833 12.29230 541 ft 0 kts 206°
2026-04-26 18:35 57.66832 12.29230 541 ft 0 kts 206°
2026-04-26 18:36 57.66826 12.29223 538 ft 3 kts 207°
2026-04-26 18:36 57.66784 12.29154 540 ft 9 kts 245°
2026-04-26 18:36 57.66794 12.29031 532 ft 11 kts 295°
2026-04-26 18:36 57.66835 12.28901 532 ft 12 kts 320°
2026-04-26 18:37 57.66908 12.28905 533 ft 11 kts 18°
2026-04-26 18:37 57.66984 12.28966 534 ft 13 kts 24°
2026-04-26 18:37 57.67074 12.29043 538 ft 15 kts 26°
2026-04-26 18:37 57.67174 12.29137 536 ft 17 kts 26°
2026-04-26 18:38 57.67286 12.29238 537 ft 19 kts 26°
2026-04-26 18:38 57.67411 12.29352 538 ft 21 kts 26°
2026-04-26 18:38 57.67507 12.29438 539 ft 5 kts 23°
2026-04-26 18:38 57.67547 12.29450 540 ft 7 kts 353°
2026-04-26 18:39 57.67577 12.29401 540 ft 4 kts 295°
2026-04-26 18:39 57.67581 12.29266 539 ft 21 kts 261°
2026-04-26 18:39 57.67485 12.29113 537 ft 16 kts 213°
2026-04-26 18:39 57.67385 12.28989 537 ft 21 kts 208°
2026-04-26 18:40 57.67036 12.28662 536 ft 95 kts 206°
2026-04-26 18:40 57.66236 12.27931 522 ft 159 kts 206°
2026-04-26 18:40 57.65137 12.26942 980 ft 183 kts 207°
2026-04-26 18:40 57.63955 12.25958 1863 ft 187 kts 207°
2026-04-26 18:41 57.62759 12.24983 2824 ft 189 kts 206°
2026-04-26 18:41 57.61530 12.23947 3565 ft 201 kts 207°
2026-04-26 18:41 57.60196 12.22923 4247 ft 213 kts 199°
2026-04-26 18:41 57.58707 12.22470 4856 ft 223 kts 183°
2026-04-26 18:42 57.57092 12.22403 5284 ft 240 kts 182°
2026-04-26 18:42 57.55351 12.22383 5671 ft 261 kts 180°
2026-04-26 18:42 57.53478 12.22685 6150 ft 278 kts 171°
2026-04-26 18:42 57.51552 12.23377 6864 ft 284 kts 169°
2026-04-26 18:43 57.49608 12.24152 7634 ft 288 kts 170°
2026-04-26 18:43 57.47622 12.24804 8393 ft 291 kts 173°
2026-04-26 18:43 57.45624 12.25347 9051 ft 298 kts 174°
2026-04-26 18:43 57.43551 12.25889 9785 ft 303 kts 174°
2026-04-26 18:44 57.41443 12.26446 10442 ft 309 kts 174°
2026-04-26 18:44 57.39247 12.27028 10770 ft 327 kts 174°
2026-04-26 18:44 57.36935 12.27642 11061 ft 344 kts 174°
2026-04-26 18:44 57.34505 12.28291 11349 ft 360 kts 174°
2026-04-26 18:45 57.31985 12.28968 11778 ft 369 kts 174°
2026-04-26 18:45 57.29423 12.29657 12380 ft 373 kts 174°
2026-04-26 18:45 57.26834 12.30353 12948 ft 378 kts 174°
2026-04-26 18:45 57.24252 12.31044 13512 ft 382 kts 174°
2026-04-26 18:46 57.21602 12.31753 14070 ft 386 kts 174°
2026-04-26 18:46 57.18929 12.32466 14584 ft 389 kts 174°
2026-04-26 18:46 57.16235 12.33183 15098 ft 393 kts 174°
2026-04-26 18:46 57.13518 12.33906 15627 ft 396 kts 175°
2026-04-26 18:47 57.10779 12.34627 16148 ft 399 kts 175°
2026-04-26 18:47 57.08019 12.35320 16678 ft 402 kts 175°
2026-04-26 18:47 57.05247 12.35999 17117 ft 404 kts 175°
2026-04-26 18:47 57.02440 12.36682 17257 ft 412 kts 176°
2026-04-26 18:48 56.99558 12.37379 17264 ft 420 kts 176°
2026-04-26 18:48 56.96647 12.38090 17266 ft 423 kts 176°
2026-04-26 18:48 56.93758 12.38801 17265 ft 423 kts 175°
2026-04-26 18:48 56.90844 12.39522 17266 ft 423 kts 175°
2026-04-26 18:49 56.87925 12.40244 17275 ft 423 kts 175°
2026-04-26 18:49 56.85010 12.40963 17270 ft 423 kts 175°
2026-04-26 18:49 56.82098 12.41680 17267 ft 423 kts 175°
2026-04-26 18:49 56.79180 12.42396 17265 ft 423 kts 175°
2026-04-26 18:50 56.76265 12.43110 17255 ft 422 kts 175°
2026-04-26 18:50 56.73375 12.43820 16706 ft 416 kts 176°
2026-04-26 18:50 56.70484 12.44526 15887 ft 419 kts 176°
2026-04-26 18:50 56.67597 12.45228 15226 ft 416 kts 175°
2026-04-26 18:51 56.64774 12.45915 14600 ft 413 kts 175°
2026-04-26 18:51 56.61937 12.46605 13976 ft 410 kts 175°
2026-04-26 18:51 56.59114 12.47290 13330 ft 405 kts 175°
2026-04-26 18:51 56.56341 12.47962 12828 ft 397 kts 175°
2026-04-26 18:52 56.53646 12.48618 12560 ft 383 kts 175°
2026-04-26 18:52 56.51914 12.49039 12399 ft 374 kts 175°
2026-04-26 18:52 56.48541 12.49859 12104 ft 357 kts 175°
2026-04-26 18:52 56.46151 12.50438 11868 ft 345 kts 175°
2026-04-26 18:53 56.43808 12.51002 11666 ft 333 kts 176°
2026-04-26 18:53 56.41547 12.51546 11448 ft 323 kts 176°
2026-04-26 18:53 56.39337 12.52071 11116 ft 318 kts 176°
2026-04-26 18:53 56.37149 12.52585 10725 ft 315 kts 175°
2026-04-26 18:54 56.34978 12.53097 10355 ft 313 kts 175°
2026-04-26 18:54 56.32825 12.53606 9962 ft 310 kts 175°
2026-04-26 18:54 56.30691 12.54112 9541 ft 307 kts 175°
2026-04-26 18:54 56.28614 12.54605 9154 ft 303 kts 175°
2026-04-26 18:55 56.26531 12.55099 8756 ft 300 kts 175°
2026-04-26 18:55 56.24468 12.55588 8369 ft 297 kts 175°
2026-04-26 18:55 56.22429 12.56071 7987 ft 294 kts 175°
2026-04-26 18:55 56.20414 12.56548 7606 ft 291 kts 175°
2026-04-26 18:56 56.18415 12.57020 7318 ft 287 kts 175°
2026-04-26 18:56 56.16440 12.57357 7268 ft 285 kts 181°
2026-04-26 18:56 56.14466 12.57427 7265 ft 283 kts 183°
2026-04-26 18:56 56.12504 12.57442 7265 ft 283 kts 183°
2026-04-26 18:57 56.10528 12.57453 7268 ft 283 kts 183°
2026-04-26 18:57 56.09224 12.57462 7265 ft 282 kts 183°
2026-04-26 18:57 56.06590 12.57484 7265 ft 282 kts 183°
2026-04-26 18:57 56.04625 12.57502 7266 ft 283 kts 183°
2026-04-26 18:58 56.02689 12.57461 7268 ft 282 kts 188°
2026-04-26 18:58 56.00777 12.56775 7270 ft 280 kts 201°
2026-04-26 18:58 55.98923 12.55715 7268 ft 279 kts 203°
2026-04-26 18:58 55.97082 12.54576 7267 ft 279 kts 204°
2026-04-26 18:59 55.95247 12.53414 7262 ft 278 kts 203°
2026-04-26 18:59 55.93435 12.52255 7253 ft 276 kts 204°
2026-04-26 18:59 55.91624 12.51084 7262 ft 277 kts 204°
2026-04-26 18:59 55.89808 12.49909 7265 ft 277 kts 204°
2026-04-26 19:00 55.87993 12.48735 7240 ft 276 kts 204°
2026-04-26 19:00 55.86200 12.47576 6863 ft 273 kts 204°
2026-04-26 19:00 55.84406 12.46416 6256 ft 279 kts 203°
2026-04-26 19:00 55.82547 12.45211 5508 ft 288 kts 203°
2026-04-26 19:01 55.80667 12.43999 5092 ft 284 kts 203°
2026-04-26 19:01 55.78858 12.42840 4991 ft 269 kts 203°
2026-04-26 19:01 55.77139 12.41736 4996 ft 265 kts 203°
2026-04-26 19:01 55.75407 12.40620 5000 ft 265 kts 203°
2026-04-26 19:02 55.73668 12.39500 4999 ft 265 kts 203°
2026-04-26 19:02 55.71934 12.38386 4999 ft 265 kts 203°
2026-04-26 19:02 55.70197 12.37271 4907 ft 263 kts 203°
2026-04-26 19:02 55.69058 12.36542 4629 ft 262 kts 203°
2026-04-26 19:03 55.66771 12.35077 4043 ft 261 kts 203°
2026-04-26 19:03 55.65072 12.33991 3664 ft 258 kts 203°
2026-04-26 19:03 55.63337 12.33181 3253 ft 259 kts 190°
2026-04-26 19:03 55.61543 12.32967 2905 ft 257 kts 185°
2026-04-26 19:04 55.59762 12.32871 2508 ft 255 kts 185°
2026-04-26 19:04 55.57993 12.32789 2140 ft 252 kts 185°
2026-04-26 19:04 55.56263 12.32709 2006 ft 253 kts 185°
2026-04-26 19:04 55.54502 12.32617 1995 ft 252 kts 185°
2026-04-26 19:05 55.50991 12.32430 2000 ft 252 kts 185°
2026-04-26 19:05 55.49236 12.32512 1990 ft 255 kts 172°
2026-04-26 19:05 55.47639 12.33792 2004 ft 259 kts 143°
2026-04-26 19:06 55.46609 12.36305 1992 ft 250 kts 109°
2026-04-26 19:06 55.46582 12.39219 1994 ft 231 kts 74°
2026-04-26 19:06 55.47201 12.41754 1989 ft 223 kts 56°
2026-04-26 19:06 55.48242 12.43682 2002 ft 212 kts 34°
2026-04-26 19:07 55.49412 12.45222 2014 ft 208 kts 35°
2026-04-26 19:07 55.50477 12.46828 1996 ft 194 kts 41°
2026-04-26 19:07 55.51465 12.48403 2001 ft 188 kts 38°
2026-04-26 19:07 55.52419 12.49867 1864 ft 176 kts 38°
2026-04-26 19:08 55.53334 12.51266 1619 ft 172 kts 38°
2026-04-26 19:08 55.54217 12.52628 1373 ft 164 kts 38°
2026-04-26 19:08 55.55041 12.53901 1140 ft 155 kts 38°
2026-04-26 19:08 55.55818 12.55096 926 ft 148 kts 39°
2026-04-26 19:09 55.56601 12.56267 729 ft 138 kts 39°
2026-04-26 19:09 55.57292 12.57369 543 ft 134 kts 43°
2026-04-26 19:09 55.57982 12.58450 376 ft 130 kts 41°
2026-04-26 19:09 55.58658 12.59483 211 ft 127 kts 41°
2026-04-26 19:10 55.59315 12.60493 50 ft 124 kts 43°
2026-04-26 19:10 55.59939 12.61462 27 ft 111 kts 41°
2026-04-26 19:10 55.60445 12.62247 29 ft 81 kts 42°
2026-04-26 19:10 55.60636 12.62545 28 ft 1 kts 40°
2026-04-26 19:11 55.60707 12.62649 28 ft 26 kts 37°
2026-04-26 19:11 55.60861 12.62810 30 ft 27 kts 24°
2026-04-26 19:11 55.61069 12.62899 29 ft 34 kts 13°
2026-04-26 19:11 55.61213 12.63052 28 ft 16 kts 43°
2026-04-26 19:12 55.61300 12.63188 29 ft 17 kts 41°
2026-04-26 19:12 55.61401 12.63348 26 ft 22 kts 41°
2026-04-26 19:12 55.61537 12.63556 28 ft 30 kts 41°
2026-04-26 19:12 55.61698 12.63803 31 ft 27 kts 41°
2026-04-26 19:13 55.61821 12.63993 27 ft 25 kts 41°
2026-04-26 19:13 55.61968 12.64152 27 ft 25 kts 24°
2026-04-26 19:13 55.62136 12.64290 26 ft 28 kts 25°
2026-04-26 19:13 55.62316 12.64411 29 ft 27 kts 15°
2026-04-26 19:14 55.62492 12.64448 26 ft 24 kts 325°
2026-04-26 19:14 55.62570 12.64277 29 ft 16 kts 309°
2026-04-26 19:14 55.62585 12.64260 29 ft 3 kts 345°
2026-04-26 19:14 55.62593 12.64265 29 ft 2 kts 17°
2026-04-26 19:15 55.62604 12.64328 29 ft 10 kts 71°
2026-04-26 19:15 55.62625 12.64421 28 ft 0 kts 66°